Volver al catálogo

COSMOS 252 DEB

ActivoLEO
NORAD 19294·DEBRIS·🇷🇺 Russia

Lanzado Nov 1, 1968 desde Baikonur Cosmodrome

Loading…

Próximos Pases (próximas 24 horas)

TLE

ActualizadoSource: Space-Track

Época: Sep 14, 2026, 13:48 UTC

1 19294U 68097EE  26257.57507892  .00000439  00000-0  53219-3 0  9999
2 19294  62.2425 103.9431 0621815 339.7928  17.9407 13.14386724817028

Sigue COSMOS 252 DEB en tiempo real con AllMySat

Download on the App Store